Wind_Speed
13 12 12 12 11 11 10 10 9 9 8 7 6 5 4 4 5 6 7 10 12 14 15 16 16 18 19 20 22 23 23 23 22 22 23 26 28 31 34 37 36 35 35 34 34 35 34 32 32 31 28 25 25 26 26 27 24 22 25 30 29 28 29 28 27 28 29 28 29 28 28 30 29 29 28 27 27 27 26 28 28 28 28 29 28 29 29
12 12 12 11 10 10 10 9 8 8 7 5 5 3 2 3 5 7 8 10 12 13 14 15 17 19 19 19 19 19 21 22 22 22 24 26 27 29 33 36 37 37 37 34 33 36 37 35 34 34 31 27 26 27 26 26 25 24 25 29 31 30 30 29 28 29 30 30 30 30 32 32 31 29 30 30 29 27 26 28 29 29 28 28 28 28 29
12 12 11 11 10 10 10 9 8 6 5 4 3 3 2 2 4 6 8 10 13 13 14 15 17 18 16 13 13 14 16 18 19 20 23 26 26 27 29 32 34 36 37 36 35 36 40 39 36 35 34 30 26 27 28 27 25 25 25 28 32 34 32 30 29 30 31 32 32 33 34 35 34 32 33 34 32 30 29 29 30 30 29 29 28 28 28
12 11 11 10 10 9 9 8 7 5 4 3 3 3 2 3 5 6 7 9 12 13 14 15 15 14 12 10 10 12 14 16 16 17 20 22 25 27 28 28 29 31 33 36 36 36 39 42 40 36 36 35 31 29 29 27 25 25 24 24 29 36 36 32 31 31 33 33 34 35 34 34 37 37 35 36 35 34 32 32 33 32 30 29 29 30 29
12 11 10 10 9 9 8 7 6 5 4 4 3 2 3 4 6 7 8 9 11 13 14 15 15 12 12 13 12 12 13 15 15 16 17 18 20 24 27 27 27 28 29 31 34 36 38 41 42 39 36 35 33 31 30 27 24 23 22 21 24 33 38 37 34 32 33 35 36 38 36 35 38 40 40 40 39 37 35 35 35 35 32 31 29 29 29
11 10 10 9 9 8 7 6 5 4 4 4 3 2 3 5 6 8 10 11 12 14 14 15 16 13 12 14 12 12 12 13 13 15 16 18 18 19 22 24 26 28 28 27 29 31 36 40 42 42 40 34 29 27 28 29 26 23 21 19 21 28 34 39 38 34 34 36 37 39 40 37 36 39 41 42 43 41 38 36 37 37 35 33 30 29 29
11 10 10 9 8 7 6 5 5 5 5 4 3 2 2 5 6 8 10 11 12 14 14 15 17 15 12 12 10 10 11 11 12 13 14 16 17 17 18 20 23 24 26 26 25 26 32 37 39 41 42 38 30 23 23 26 27 26 22 17 18 23 28 36 42 40 38 39 38 39 41 40 37 37 39 43 46 43 40 38 37 37 35 33 32 31 32
11 10 10 9 8 6 5 4 5 5 4 4 2 2 2 3 5 7 8 9 10 12 13 15 17 15 10 9 9 9 11 11 12 13 13 13 14 16 16 17 18 20 22 23 24 25 29 34 37 38 40 40 36 29 24 24 25 25 23 17 15 19 23 31 42 46 45 43 39 39 40 40 40 38 37 41 46 44 41 40 38 38 36 34 34 34 35
11 11 10 9 7 5 5 4 5 4 4 3 2 1 2 3 5 6 8 8 9 11 12 14 15 15 10 7 7 9 10 11 12 11 11 12 11 12 14 15 15 18 20 22 24 24 26 31 35 37 37 38 37 33 29 27 24 23 23 20 15 14 17 23 33 42 45 43 39 39 39 38 39 39 37 37 41 41 41 40 39 39 39 37 37 37 38
11 11 11 8 7 5 5 5 5 4 4 3 2 1 1 3 5 6 8 9 11 12 12 13 14 14 12 9 7 8 9 11 12 11 10 10 10 9 11 13 14 15 19 21 22 23 25 28 33 35 35 35 35 35 32 28 25 25 26 24 19 12 9 12 19 28 34 37 37 38 38 37 39 41 40 39 39 39 39 39 38 39 40 39 39 40 40
12 12 10 8 6 6 5 5 5 5 4 2 1 0 2 3 5 6 8 9 10 12 11 12 13 13 12 11 9 8 9 10 12 12 9 9 10 9 8 10 13 14 16 17 18 20 23 26 30 33 34 33 35 36 33 29 27 27 27 25 20 13 10 10 11 15 21 26 31 33 34 34 35 36 37 38 39 38 39 41 42 43 42 40 40 40 40
12 11 10 8 7 6 5 5 5 4 3 2 1 1 2 4 4 6 7 8 10 11 11 11 12 12 12 13 12 9 8 8 10 11 8 8 10 9 7 8 11 13 14 14 12 14 19 23 27 30 31 32 34 34 33 31 31 30 29 27 23 18 16 14 12 10 10 14 20 25 26 26 26 24 24 26 29 31 33 35 39 44 45 41 37 36 36
12 11 10 8 7 6 5 5 5 4 3 2 1 1 3 4 4 6 8 8 9 11 11 10 11 11 11 12 12 12 10 8 8 9 7 7 9 10 9 8 10 12 13 13 11 10 13 18 24 27 27 28 29 29 30 31 31 31 30 30 27 23 20 19 17 14 11 10 14 17 19 20 19 19 19 18 18 22 25 27 29 34 36 35 32 30 28
12 11 9 8 7 6 6 6 5 4 3 2 1 2 3 4 6 6 8 9 9 10 10 10 10 11 11 11 11 12 12 9 8 8 7 7 8 8 10 9 9 10 12 12 12 11 11 15 21 24 24 24 25 25 26 28 29 29 29 30 29 26 23 22 20 19 17 15 13 12 13 14 14 14 15 14 14 16 19 21 23 26 27 29 29 27 24
12 11 9 8 7 7 6 6 5 4 3 2 1 2 3 4 6 7 7 8 9 9 10 10 10 10 10 10 10 10 10 10 9 9 9 8 9 6 5 7 7 8 11 12 12 11 11 14 18 21 22 22 21 21 23 25 25 26 27 28 27 25 22 22 21 20 19 19 18 15 14 14 14 13 12 14 16 17 16 17 19 21 23 26 28 28 26
12 11 9 9 8 7 6 6 5 4 2 1 1 2 3 4 5 6 7 8 8 9 9 10 10 10 10 10 10 9 9 9 8 9 9 8 7 6 3 3 4 8 10 12 12 10 10 13 17 18 19 19 19 19 20 22 22 22 24 25 24 23 20 19 20 20 19 19 20 20 18 17 17 16 16 17 20 19 17 15 16 18 20 22 24 25 27
12 11 10 9 8 7 6 5 4 3 2 1 1 2 3 4 5 6 6 7 8 9 9 8 9 9 9 9 9 9 10 9 8 8 8 8 6 5 5 2 4 9 10 11 11 10 10 12 16 17 17 17 17 17 18 20 20 20 20 21 22 21 19 17 17 18 19 19 20 20 20 19 19 19 19 19 20 19 15 14 15 17 20 21 22 23 24
12 11 10 9 8 7 6 5 3 2 1 1 2 3 3 4 5 6 7 7 8 9 8 8 8 9 9 9 9 9 9 9 9 8 7 8 8 7 6 5 5 9 10 11 11 10 9 11 14 16 17 17 17 17 17 17 18 18 19 19 20 20 19 18 17 17 18 18 19 19 19 19 20 21 21 20 20 20 18 15 14 15 18 20 22 22 22
13 12 10 9 8 6 5 4 3 2 1 1 2 2 3 4 6 7 7 8 8 8 8 8 8 8 8 9 8 8 8 8 8 8 7 7 8 8 8 7 7 8 9 10 10 9 8 9 11 14 16 17 17 16 16 15 15 16 16 17 19 19 19 18 17 16 17 17 18 19 19 19 20 21 22 23 22 22 22 20 18 17 18 18 19 20 20
13 12 11 10 8 7 5 4 3 2 1 2 2 3 4 5 6 7 7 8 8 9 9 9 8 8 9 8 8 7 7 7 7 8 7 7 7 7 7 7 6 6 7 8 7 6 6 6 7 10 13 15 16 16 16 15 14 14 14 15 16 17 18 18 17 15 15 15 15 16 17 18 19 20 20 22 23 24 24 24 23 23 23 22 22 22 21
13 12 11 10 9 7 6 4 3 2 2 2 2 3 4 5 6 7 8 8 8 9 9 9 10 10 9 9 8 8 8 7 7 7 7 6 6 5 5 5 5 3 4 5 6 6 6 6 6 8 10 12 14 15 15 15 15 14 14 14 14 14 16 18 18 18 17 16 15 15 15 15 17 19 19 21 22 23 24 24 24 24 24 24 24 24 24
13 12 11 10 9 7 6 4 3 2 2 3 3 3 4 5 6 7 8 8 8 8 9 10 10 10 9 9 9 9 8 8 7 6 5 5 5 4 4 4 3 2 1 2 3 3 4 5 6 7 9 10 11 12 13 13 13 13 13 13 13 13 14 16 18 19 19 19 18 17 17 18 18 19 20 21 22 23 23 23 24 24 25 25 25 25 26
13 12 11 10 9 7 6 4 3 3 3 3 4 4 5 5 6 6 7 8 8 8 9 9 10 10 10 10 10 9 8 7 7 6 5 4 4 3 3 2 2 2 1 1 0 0 1 2 4 5 6 8 9 10 11 13 13 13 12 12 12 13 14 15 17 17 18 19 19 19 20 20 20 20 21 22 23 23 24 24 24 25 25 26 27 28 29
13 12 11 10 9 7 6 4 3 2 3 4 4 5 6 6 6 6 7 8 7 7 8 9 9 10 10 10 9 9 8 7 6 6 5 4 3 3 2 2 1 1 1 1 1 0 1 2 3 4 4 5 6 7 8 9 10 11 11 11 11 12 13 14 15 16 17 17 18 19 20 21 22 23 23 23 24 25 26 27 27 26 26 26 27 28 30
13 12 10 10 8 7 6 4 3 2 2 3 4 5 6 6 6 7 7 8 8 7 8 9 10 10 10 9 9 9 8 7 7 6 5 4 4 3 3 2 2 1 1 1 1 2 3 3 3 4 4 5 5 5 6 7 7 8 9 9 9 9 10 11 11 12 14 14 15 16 18 20 22 24 25 26 26 26 27 28 29 29 29 29 29 30 32
13 11 10 9 8 7 6 4 3 2 1 2 4 5 5 6 6 6 7 8 8 7 8 9 10 9 9 9 9 8 8 8 7 7 6 5 4 4 3 3 2 2 0 1 2 3 4 3 3 3 4 5 5 5 6 7 7 7 8 9 10 10 10 10 11 12 12 13 14 16 17 18 19 21 22 24 25 26 27 28 29 30 30 31 31 33 35
13 11 10 9 8 7 6 5 4 2 1 2 3 4 5 6 7 6 7 8 8 7 7 9 9 9 9 8 8 8 8 8 8 7 7 6 5 4 4 3 3 2 2 3 3 3 4 3 3 4 4 5 5 5 5 6 7 7 8 9 10 11 11 12 13 13 13 14 14 15 17 18 18 19 20 21 23 24 25 25 26 27 28 29 30 32 34
12 11 9 8 8 7 6 5 3 2 1 2 3 4 5 6 7 6 7 7 7 7 8 9 9 8 8 8 8 8 8 8 8 7 7 6 6 5 4 4 3 3 3 4 4 4 4 4 5 5 5 5 5 5 5 5 6 6 7 8 10 12 12 13 13 13 14 14 14 15 16 16 17 18 19 21 22 22 23 24 24 24 25 26 27 28 30
12 11 9 8 8 7 6 5 3 2 1 2 3 4 6 7 7 6 7 7 6 6 8 9 9 8 8 8 8 8 8 8 8 8 7 7 7 6 5 4 4 4 4 5 5 5 5 5 6 6 6 6 6 5 5 6 6 6 6 7 10 12 12 13 13 13 13 13 14 14 15 15 15 16 17 19 20 21 22 22 23 23 24 25 26 26 27
12 11 9 8 7 7 6 5 3 2 0 2 3 4 6 7 6 6 6 6 5 6 7 8 9 8 8 8 8 8 8 8 8 7 7 8 7 7 6 5 5 5 5 5 5 5 6 6 6 7 7 7 7 7 7 7 7 6 6 8 10 12 13 13 14 14 14 14 14 14 15 15 16 16 17 18 18 19 21 22 22 23 25 26 27 27 27
13 11 9 8 7 7 6 5 4 2 1 2 3 4 6 6 6 6 6 6 5 6 7 8 8 8 7 8 8 8 8 8 8 7 8 8 8 8 7 6 5 5 5 5 5 5 6 6 7 7 8 7 7 7 7 7 7 7 7 9 11 12 12 13 14 14 15 15 16 16 16 16 17 17 18 19 20 20 20 22 23 24 26 27 27 27 27
13 11 9 8 7 7 6 5 4 3 1 2 3 4 5 6 5 5 5 5 5 6 7 8 8 7 7 7 7 7 7 7 7 8 8 9 9 8 8 7 6 5 5 5 5 6 6 6 7 8 8 8 8 8 8 8 8 8 8 9 11 12 13 13 14 14 15 15 16 17 18 18 18 19 20 20 21 21 21 22 22 24 25 26 26 26 26
13 11 9 8 7 7 7 6 4 3 2 2 3 4 5 6 4 4 4 5 5 5 6 7 8 8 7 7 7 6 6 7 7 7 8 9 9 9 8 8 7 6 5 5 5 5 5 6 6 8 8 8 8 8 8 8 9 10 10 11 12 13 14 15 15 15 16 16 17 18 19 19 20 20 21 21 22 23 23 23 23 23 24 25 25 26 26
12 10 9 8 8 7 6 6 5 4 3 2 3 4 5 5 4 3 4 4 4 5 6 6 7 7 7 6 6 6 6 6 7 7 7 8 9 10 9 8 7 6 5 5 5 5 6 6 6 7 8 7 8 8 8 9 11 11 12 12 13 14 15 16 17 18 19 19 20 21 21 22 22 23 23 23 23 23 23 24 24 24 25 25 25 25 25
12 10 9 9 8 7 6 6 5 4 3 2 2 4 5 5 4 3 3 4 3 4 5 6 6 6 6 6 6 5 5 5 6 7 7 8 8 9 9 8 7 6 5 6 5 5 5 6 6 7 7 7 7 8 10 11 12 13 13 14 14 14 15 16 18 20 21 22 24 25 25 26 26 26 25 25 24 23 22 24 25 25 25 25 25 25 25
12 11 10 9 8 6 6 5 5 4 4 3 3 3 4 5 4 3 3 3 3 4 4 5 6 6 5 5 4 4 4 5 5 6 7 7 7 7 8 8 6 6 6 6 5 5 5 6 6 6 6 6 7 8 11 12 13 14 14 15 16 17 18 19 20 21 22 23 25 26 27 28 28 28 28 27 25 23 23 24 25 25 25 25 25 25 24
13 11 10 9 8 7 6 5 5 5 4 3 3 3 4 4 4 3 3 3 3 3 4 5 5 5 5 5 4 4 4 4 5 6 7 7 7 7 7 7 6 6 5 5 5 5 6 6 6 5 5 5 6 8 10 12 14 15 17 18 20 22 23 25 26 26 27 27 28 28 29 30 30 30 29 28 25 23 23 25 25 25 25 25 25 24 25
13 12 11 9 8 7 6 5 5 5 4 4 3 3 4 4 4 4 3 3 3 3 4 4 5 5 5 5 5 4 4 5 5 6 7 8 8 7 7 6 6 6 5 5 6 6 6 6 7 6 6 6 7 8 10 12 14 16 19 22 23 25 27 28 30 31 32 33 33 33 32 32 32 31 29 27 25 23 24 24 24 24 24 24 24 24 24
14 12 10 9 8 7 6 6 5 5 5 4 4 4 4 5 4 4 4 4 4 3 3 4 5 5 5 4 5 5 5 6 6 6 7 8 8 8 8 7 7 7 6 5 6 6 6 7 6 6 6 6 8 9 11 14 17 19 22 24 26 28 30 32 34 35 35 36 36 35 34 33 32 30 27 25 24 24 23 23 23 23 23 23 23 23 23
14 12 10 9 8 7 6 6 6 5 5 5 4 4 4 5 4 4 4 4 4 4 3 3 5 6 5 5 5 5 5 6 6 7 8 8 9 9 9 8 7 8 8 7 6 7 8 8 7 6 6 8 9 12 14 18 21 23 26 28 30 32 34 36 37 38 37 35 34 32 31 29 27 26 24 23 23 22 22 22 21 21 21 21 21 21 22
14 12 10 9 8 7 7 6 6 6 5 5 4 4 5 5 5 5 5 4 4 4 4 4 5 6 6 6 5 5 5 6 7 7 8 9 9 10 10 9 9 9 9 8 8 9 10 9 8 8 9 11 13 15 18 22 24 27 29 32 34 36 37 38 38 36 34 31 28 26 24 23 22 21 20 20 20 20 20 20 21 20 20 19 19 19 20
13 12 10 9 8 8 7 7 6 6 5 5 5 5 5 5 5 5 6 5 5 5 5 4 5 6 7 6 6 6 6 7 7 7 9 9 9 10 10 11 11 10 10 10 10 10 11 10 9 9 11 13 15 18 21 24 27 30 33 35 36 38 38 37 34 30 27 25 22 21 19 18 17 15 15 15 16 17 18 19 19 19 19 18 17 16 17
13 12 10 9 8 8 7 7 7 6 5 5 5 5 5 5 5 5 5 6 6 6 5 5 5 6 7 7 7 7 7 7 8 8 9 10 10 10 11 12 12 11 11 12 12 12 12 11 11 11 13 15 17 21 24 27 30 33 35 36 37 36 34 32 28 25 22 20 18 16 14 12 11 11 13 14 14 14 14 15 16 17 18 17 15 14 15
12 11 10 9 8 8 8 7 7 6 5 5 5 6 6 6 6 5 5 6 6 6 6 6 6 6 6 7 8 7 7 8 9 9 9 10 11 11 12 12 12 12 13 13 13 13 13 13 13 15 16 18 20 23 26 29 32 34 36 37 36 32 28 25 23 21 19 17 14 12 9 9 10 11 12 13 12 11 10 11 12 14 15 15 14 12 12
13 11 10 9 8 8 8 7 7 6 5 5 6 6 7 7 6 5 6 8 8 7 6 7 7 7 7 7 8 8 8 8 9 9 10 11 12 12 12 12 13 14 14 14 14 14 14 14 15 18 19 21 23 25 28 30 33 35 36 36 33 27 22 20 20 20 18 16 13 10 10 11 13 14 14 13 12 10 9 9 10 10 11 13 12 11 10
13 12 10 9 9 8 8 7 7 6 6 6 7 7 8 8 7 6 7 8 9 8 7 7 7 8 8 8 8 9 9 9 10 10 10 11 12 13 13 13 14 14 15 15 15 15 15 15 17 19 21 23 25 27 29 31 33 34 34 33 28 23 19 19 19 18 17 16 14 13 12 12 13 13 14 13 11 10 9 10 10 10 10 11 11 10 9
12 11 10 10 9 8 7 7 7 6 7 8 8 7 8 9 8 7 7 8 9 9 9 8 8 8 8 7 8 10 10 10 11 12 12 12 13 14 14 14 14 14 15 15 15 15 16 17 18 20 23 25 27 29 31 33 34 34 33 30 25 20 18 17 18 18 16 15 15 15 14 13 13 13 13 12 12 12 12 12 12 13 12 11 10 10 9
13 12 11 10 9 8 7 7 7 7 8 8 8 8 9 10 9 8 8 9 9 9 9 9 9 10 9 8 8 9 11 11 12 13 13 13 14 15 15 15 14 15 15 15 15 16 17 18 19 21 24 27 29 31 33 34 35 34 31 28 24 20 18 17 17 17 16 15 15 15 15 15 16 15 15 15 16 16 15 15 14 14 13 12 11 11 10
13 12 11 10 9 8 8 7 8 8 8 8 8 9 10 10 10 9 9 10 9 9 9 9 9 9 10 10 9 10 11 12 12 13 14 14 14 15 15 15 14 14 15 15 15 17 18 19 20 22 25 27 30 32 34 34 34 33 30 26 23 21 19 18 18 17 16 15 14 14 14 15 16 17 18 18 18 17 17 15 14 13 13 13 13 13 12
13 12 11 10 9 9 8 8 8 8 8 8 9 10 10 10 10 10 10 10 9 9 10 10 9 8 9 10 10 10 11 12 13 14 14 14 14 15 15 14 14 14 15 16 17 18 19 20 21 24 26 29 31 33 34 34 34 32 29 25 22 20 19 18 18 18 17 16 15 13 13 13 14 16 18 18 18 17 15 14 12 12 13 14 14 14 13
13 12 11 10 10 9 9 9 8 8 8 9 9 10 10 11 11 10 10 10 10 10 10 10 10 9 9 10 11 12 12 13 14 16 16 15 14 15 14 13 13 14 15 17 18 18 19 20 22 25 27 30 32 33 34 33 33 31 27 23 21 20 18 17 16 17 17 17 16 15 14 13 13 14 15 17 17 16 14 13 12 12 12 14 14 14 14
12 11 10 10 10 9 9 9 8 8 9 9 9 9 9 10 11 10 10 10 10 10 9 10 10 10 11 12 13 13 14 15 16 17 17 16 15 15 14 14 13 14 15 17 18 18 19 20 23 26 28 31 32 33 33 33 31 28 24 21 20 20 19 17 17 17 17 17 17 18 17 16 14 13 14 14 14 14 14 14 14 14 14 14 14 14 14
Wind_Direction
249 241 238 240 242 244 248 250 250 250 250 251 255 261 271 282 300 322 326 319 317 315 311 304 295 287 280 274 269 264 260 254 250 248 245 241 238 236 231 230 230 228 226 224 216 211 216 222 221 220 223 226 228 230 230 228 228 229 224 223 225 222 221 218 210 206 208 215 223 215 199 199 202 204 212 217 218 218 217 218 222 223 225 228 229 231 234
237 233 235 237 239 243 248 247 243 242 244 248 253 259 270 293 319 333 328 322 323 323 317 308 300 293 283 276 271 267 263 258 250 245 243 241 238 236 235 233 232 232 231 228 220 214 215 221 224 223 224 228 230 230 231 231 230 231 231 229 228 226 225 223 214 209 209 214 223 222 210 202 200 203 210 214 218 221 221 220 222 225 227 229 230 231 234
229 229 233 235 238 241 242 239 235 235 238 243 251 255 275 314 331 334 327 326 329 330 324 315 306 295 285 277 275 275 274 268 260 253 249 245 240 238 237 237 236 235 236 232 224 217 216 220 225 227 228 231 236 235 234 233 233 235 236 235 230 226 226 225 219 213 211 214 223 226 217 207 202 203 210 214 217 221 224 224 223 224 227 230 233 234 235
224 226 230 233 235 233 230 230 229 226 229 234 244 261 311 337 335 332 327 328 332 332 328 324 313 292 274 273 280 281 281 278 269 262 259 255 249 244 239 238 238 239 238 235 230 223 218 220 225 228 230 234 239 239 236 236 238 239 240 240 232 226 225 225 223 219 214 215 224 229 224 215 208 205 210 215 218 221 225 228 226 224 226 229 233 236 238
219 222 226 228 227 221 219 223 221 217 222 226 234 267 327 335 333 334 333 334 337 336 332 330 323 297 265 266 279 281 281 280 272 265 264 263 258 252 246 240 237 237 236 235 235 231 224 221 224 227 230 233 239 240 237 236 238 239 243 246 238 229 228 227 225 224 220 217 221 227 227 220 212 207 208 213 218 220 224 229 232 231 229 229 230 232 236
214 219 221 217 213 210 210 213 212 212 219 222 229 266 321 329 335 337 337 340 344 342 338 335 333 316 278 267 276 284 284 283 277 272 269 265 259 255 251 244 238 236 236 235 235 233 228 225 225 227 229 231 236 242 241 238 237 239 244 249 244 236 233 230 226 224 224 222 222 226 227 224 219 216 213 213 216 220 222 227 234 237 236 235 233 233 234
210 214 210 204 201 203 201 200 205 213 217 218 224 256 309 328 336 335 340 346 346 343 341 338 337 330 298 272 274 290 297 297 291 286 281 269 257 252 250 244 238 235 236 237 235 230 226 227 228 228 229 230 233 240 243 242 242 244 243 244 246 242 238 233 228 225 226 225 223 225 228 227 226 227 225 220 218 219 220 222 230 236 239 240 240 241 241
206 205 198 193 194 196 195 194 205 214 216 215 224 260 304 328 333 332 343 352 345 341 344 343 343 341 319 280 276 295 309 313 304 296 293 282 260 245 243 242 239 234 231 233 233 227 223 225 227 230 230 231 233 236 238 239 241 243 242 237 239 241 238 233 229 226 228 229 227 227 230 230 230 233 233 225 218 217 218 219 225 232 237 240 242 244 245
199 194 189 187 187 191 194 197 204 211 215 218 226 253 299 327 334 337 348 353 346 346 350 349 348 349 339 308 286 294 309 317 312 301 295 294 277 250 241 241 241 236 228 225 226 224 221 220 221 226 229 230 231 231 232 233 230 231 234 229 221 227 234 232 227 225 228 231 232 232 233 234 233 233 232 225 218 217 218 218 222 229 233 238 242 243 246
190 187 185 184 184 188 194 198 199 203 208 213 218 251 331 337 340 350 356 353 349 351 354 352 352 354 350 334 303 291 299 308 313 309 296 292 290 270 250 243 239 232 225 223 222 220 219 216 215 220 224 226 226 225 227 229 225 222 224 218 205 200 219 229 222 221 227 231 232 234 236 237 235 233 231 227 224 223 222 223 228 232 234 238 242 243 243
185 184 183 182 184 187 192 194 190 188 191 187 175 47 8 351 345 358 5 356 348 350 353 353 355 355 351 346 335 312 296 296 310 315 297 278 283 284 267 245 235 225 219 221 221 218 215 213 213 216 220 223 224 223 225 229 228 225 223 218 212 213 231 238 220 215 225 231 233 235 235 234 233 231 230 230 230 229 230 232 236 238 239 241 243 242 240
182 182 181 182 186 188 188 187 180 175 167 148 126 46 18 359 351 2 7 358 349 349 352 354 355 353 350 350 352 346 323 303 314 327 313 280 280 285 273 243 227 219 215 214 214 213 213 211 211 214 218 223 225 224 227 231 233 234 235 236 239 245 251 249 228 214 224 226 225 228 227 226 228 228 228 229 229 228 231 234 236 238 239 240 241 240 237
179 180 179 182 186 186 186 182 175 164 149 135 106 34 16 355 355 3 3 359 353 348 350 355 353 352 352 350 353 357 351 329 323 337 337 312 295 280 263 245 224 213 210 207 203 204 208 209 209 209 214 221 224 224 227 231 233 237 240 243 248 255 260 257 248 247 245 216 204 217 225 228 230 229 231 232 229 228 231 231 233 236 236 234 235 237 236
176 177 178 182 184 183 183 180 172 161 146 131 59 21 6 349 356 1 358 358 353 345 350 357 352 350 355 355 353 356 359 352 336 326 326 340 335 291 255 249 238 214 201 196 196 199 200 202 203 205 210 218 222 223 227 230 232 236 241 244 249 255 260 260 256 257 253 235 216 214 218 222 223 224 231 234 228 229 230 226 227 231 233 233 233 234 234
174 175 177 180 180 178 180 177 168 159 146 120 50 9 356 351 354 353 354 357 349 341 351 358 352 350 354 357 356 356 360 3 352 330 320 341 1 344 259 246 243 219 198 188 189 197 198 194 195 200 206 215 221 223 226 230 233 237 240 243 247 251 255 258 257 258 258 251 242 234 226 221 214 207 213 220 222 228 230 223 220 222 227 231 232 231 231
173 173 174 176 177 174 175 174 166 156 143 112 37 359 356 355 352 350 353 352 342 344 356 357 352 354 355 354 355 359 5 9 5 356 351 353 3 3 337 275 221 203 196 190 188 196 200 193 192 196 201 210 217 220 222 227 232 236 239 241 243 244 247 253 256 255 254 251 247 244 241 233 221 213 214 219 224 230 233 231 228 225 225 230 232 232 234
172 172 173 173 173 172 171 168 162 152 135 93 20 4 358 355 355 354 352 348 348 354 357 352 352 357 357 354 355 358 7 14 15 17 18 16 14 15 12 16 179 186 188 188 190 198 201 195 194 197 201 206 211 214 218 223 227 232 237 241 243 243 243 246 249 248 244 242 241 240 239 234 227 225 227 228 228 227 226 229 234 233 232 234 236 237 239
170 169 171 171 170 171 168 163 155 143 112 61 22 6 1 0 2 358 354 356 359 359 354 350 355 359 358 359 360 359 4 14 20 24 22 19 23 31 38 63 139 172 178 183 193 204 211 207 202 202 204 205 208 212 216 220 225 229 233 236 241 244 244 244 246 244 240 237 236 235 235 233 231 230 231 231 228 223 221 223 224 223 226 232 235 237 241
168 167 168 167 166 167 166 159 152 140 96 55 27 13 12 11 6 1 1 1 359 357 355 355 358 1 1 1 2 3 6 10 17 24 23 23 32 37 46 70 113 152 172 185 196 206 217 225 223 218 216 214 213 214 216 219 224 228 232 234 237 240 241 244 249 249 245 241 239 238 237 235 234 235 235 234 233 232 232 233 232 230 231 234 234 233 235
167 166 165 163 163 164 161 157 151 134 86 50 31 24 21 13 5 4 6 2 358 359 359 359 3 6 5 4 4 10 14 12 15 20 21 24 36 44 51 68 94 135 169 188 201 205 211 222 230 230 228 226 225 224 224 225 227 229 235 240 242 242 241 241 244 246 241 237 237 239 240 240 239 242 243 241 240 242 244 244 244 246 248 248 245 242 241
166 165 163 160 159 158 156 151 141 112 75 50 37 28 22 13 8 8 6 1 0 2 360 1 8 8 5 5 10 13 16 15 16 19 20 22 30 42 57 66 76 115 168 188 203 215 221 224 227 230 231 231 231 232 233 234 236 238 243 249 252 251 247 243 244 246 244 241 239 239 242 247 248 249 251 251 250 250 250 250 250 251 252 252 249 247 245
165 163 161 158 156 154 150 142 124 97 71 57 44 29 20 15 12 11 5 360 2 5 2 3 7 7 6 9 12 13 14 14 13 15 19 24 26 33 54 72 82 101 158 186 205 223 236 243 243 243 244 241 239 240 242 244 245 246 248 252 255 255 253 251 251 253 254 256 256 253 253 256 258 257 257 258 258 258 256 255 253 252 253 253 251 248 247
165 162 160 156 151 149 145 135 118 91 66 57 44 29 19 13 10 8 4 1 3 5 5 5 5 7 10 13 11 11 13 12 11 11 14 22 26 29 43 74 107 130 141 157 209 281 277 270 260 252 253 253 250 249 251 252 252 252 251 254 257 258 258 258 258 259 261 263 264 263 262 260 259 258 257 256 256 258 258 257 256 255 254 253 252 250 250
165 161 158 153 149 147 144 133 118 90 56 44 38 27 17 9 4 4 2 1 3 4 5 7 8 10 13 12 9 9 11 11 10 8 7 10 13 15 21 31 43 73 100 105 99 165 239 257 258 254 257 258 254 253 255 256 256 256 255 254 254 255 258 260 261 262 262 264 265 266 265 263 259 258 258 257 256 256 257 257 257 257 256 254 250 249 249
165 161 157 152 149 147 144 136 123 102 51 33 29 23 15 6 1 0 359 358 2 6 8 9 10 11 12 11 9 10 11 12 10 8 5 1 356 354 359 6 11 32 65 106 164 208 220 228 239 252 263 266 264 268 274 275 273 270 268 268 267 264 260 261 264 265 265 265 267 267 267 266 264 261 260 259 259 258 257 257 257 257 257 255 252 251 252
166 162 158 154 151 149 145 140 131 114 62 30 24 18 9 3 0 0 359 358 360 5 10 10 10 11 11 10 9 10 12 13 13 10 5 359 347 341 342 347 353 359 331 217 218 229 237 246 258 269 272 273 278 288 294 299 302 298 294 291 288 283 273 267 265 266 266 267 268 267 267 267 266 264 263 261 260 258 258 257 256 256 256 255 254 254 255
167 164 160 157 156 154 151 146 137 120 66 25 20 12 3 359 359 1 3 2 358 1 8 10 8 9 11 9 9 12 15 18 19 15 8 360 350 339 331 332 338 329 292 261 248 245 248 254 259 261 267 276 289 302 311 316 316 311 305 301 294 287 283 279 274 271 270 270 270 269 268 269 269 267 265 263 260 259 258 257 256 256 255 254 254 254 255
168 166 164 162 162 161 156 149 142 127 65 25 16 6 360 358 357 360 6 8 1 358 5 10 8 8 10 10 11 16 19 20 21 18 9 1 355 346 332 323 321 315 297 281 270 264 260 259 258 258 265 278 294 312 323 326 321 311 303 296 288 283 283 284 285 285 283 280 276 272 269 269 269 269 268 266 265 264 262 262 261 261 260 258 257 256 255
171 169 169 168 167 166 161 156 153 150 88 25 15 5 358 357 354 356 5 12 8 0 3 6 7 9 11 12 14 18 21 21 21 17 9 2 359 353 339 325 316 311 302 294 286 279 273 270 270 271 277 288 301 315 324 326 329 328 314 295 288 288 290 292 293 294 292 288 283 278 272 268 264 262 262 264 265 265 265 265 265 265 264 262 260 259 259
174 174 172 172 171 169 168 170 171 175 162 17 11 2 356 354 352 354 2 10 14 9 4 4 6 8 9 12 15 17 18 20 21 14 5 2 2 358 346 333 320 312 306 304 301 294 287 283 282 281 286 293 302 311 318 324 331 331 317 301 295 297 300 302 302 302 301 299 295 289 282 275 268 262 258 256 256 259 262 263 263 263 264 264 264 263 263
178 177 175 174 175 175 177 182 187 196 228 359 1 356 353 351 349 353 1 8 14 12 5 6 11 11 8 9 14 14 13 16 18 12 4 4 5 0 353 344 331 320 314 312 308 301 294 288 286 286 289 293 300 308 314 319 323 319 309 301 298 298 298 299 300 301 303 302 300 297 293 288 281 275 268 261 257 255 255 255 256 256 257 260 262 264 265
180 179 177 177 179 181 185 189 193 206 245 334 346 345 347 346 346 353 1 7 13 13 7 5 11 13 11 10 12 12 11 13 15 9 5 6 7 4 359 354 346 335 326 319 313 309 304 297 293 292 293 296 302 308 313 314 313 311 306 302 299 299 298 298 298 299 300 299 298 297 296 294 291 287 283 278 273 268 263 260 259 258 257 256 256 258 258
181 180 180 182 184 186 190 193 196 206 234 300 329 336 339 341 344 356 1 4 10 12 10 7 7 7 9 10 11 11 9 9 10 9 7 6 6 8 7 3 355 348 339 329 322 316 310 304 298 295 298 304 308 313 316 312 305 303 306 309 310 308 306 305 304 302 301 300 298 296 294 293 291 289 287 285 283 281 278 275 271 268 265 263 261 260 259
182 182 183 185 187 189 191 193 200 209 228 272 315 328 334 337 342 350 359 3 4 3 9 12 6 2 4 8 10 12 8 1 1 7 8 5 3 6 8 6 0 355 345 333 326 320 313 309 304 303 308 315 317 315 311 304 301 307 316 321 320 316 313 310 309 308 307 305 302 299 297 295 292 290 287 285 283 282 281 279 275 271 269 266 265 264 263
183 185 186 187 189 191 192 195 202 210 223 253 295 315 326 333 338 340 350 357 355 353 4 10 4 359 1 3 2 3 3 359 357 360 5 5 1 1 3 2 359 354 342 331 329 325 314 309 311 314 320 323 320 312 306 305 310 319 325 324 320 316 312 308 306 306 306 305 302 299 296 294 291 290 288 286 283 283 282 280 276 273 271 268 267 266 265
184 186 188 189 189 191 196 199 204 211 221 240 275 303 320 331 334 332 339 348 346 346 360 4 359 355 358 357 352 350 352 355 353 352 358 3 0 356 358 357 351 343 336 329 323 319 312 309 313 320 324 324 318 310 306 309 317 322 322 319 316 312 309 307 304 301 298 296 294 293 292 290 288 287 286 285 284 284 283 280 277 275 273 272 270 270 268
186 188 190 190 190 193 198 202 206 212 220 236 267 296 318 329 330 328 331 336 335 338 352 358 352 348 348 347 346 346 346 347 347 346 351 357 355 351 352 351 342 333 329 319 312 310 309 307 311 318 322 320 314 309 309 315 320 321 318 316 315 313 312 309 306 303 298 293 288 286 286 286 285 285 284 283 283 281 279 277 276 275 273 272 272 271 270
189 190 191 192 193 197 201 203 207 212 220 236 261 289 315 328 330 327 326 327 326 330 343 349 344 340 339 336 335 338 341 343 345 344 343 343 344 345 348 345 333 324 317 309 307 308 305 304 311 320 323 318 316 317 320 320 318 314 312 312 312 310 308 305 303 302 299 293 288 285 284 284 284 284 283 281 279 276 274 274 275 274 273 273 273 272 271
191 192 193 194 198 203 207 209 211 215 222 237 259 287 314 326 329 327 323 322 321 323 331 336 332 327 327 326 325 328 333 337 342 343 338 336 337 340 342 338 325 315 311 307 303 302 299 299 306 312 311 313 320 324 321 314 311 311 313 314 311 307 304 301 300 299 297 293 291 289 287 285 284 282 280 278 275 272 271 272 272 272 272 273 273 273 273
192 194 196 199 203 206 209 211 214 217 224 238 260 286 308 320 327 326 320 317 316 313 315 319 317 314 315 318 320 323 327 331 336 338 336 333 332 331 333 330 318 311 310 307 300 299 299 300 304 309 312 321 327 324 316 312 314 317 319 318 314 310 306 303 301 301 300 298 296 293 290 285 280 276 274 272 271 271 271 270 269 269 269 269 270 271 272
194 195 199 205 208 211 214 215 216 220 228 240 259 280 299 317 328 328 322 319 315 306 303 306 307 306 308 313 315 316 321 327 332 333 332 330 327 326 326 323 315 309 306 302 299 300 300 301 307 314 319 324 325 319 315 316 319 321 322 319 315 310 307 305 304 304 304 302 300 297 292 282 273 270 271 271 270 270 270 268 267 267 266 266 267 267 268
196 197 202 209 213 215 217 219 221 225 231 242 258 276 295 315 328 327 322 318 311 300 297 298 297 298 302 304 306 309 316 322 328 331 330 327 325 324 322 318 314 308 302 299 301 301 299 302 310 315 318 321 320 317 317 320 321 322 322 319 314 310 309 309 309 308 306 304 302 299 291 281 274 274 279 279 277 275 273 272 271 270 268 268 268 267 266
199 201 206 213 217 219 221 223 225 230 235 244 259 275 290 305 317 320 315 309 303 297 294 289 285 289 295 298 299 304 312 317 323 329 330 326 323 321 318 315 313 309 303 303 304 302 300 303 308 309 312 317 319 320 321 323 323 323 322 318 314 312 313 313 311 308 305 303 301 297 290 285 283 282 285 287 287 283 278 275 274 273 271 270 269 269 268
201 207 213 218 221 223 224 226 230 234 239 249 263 275 284 295 309 317 310 301 297 295 289 283 279 282 287 290 294 301 309 313 318 325 328 324 322 320 317 314 313 310 307 307 306 305 304 305 304 303 309 317 322 324 326 325 324 322 320 317 316 316 316 312 310 308 305 301 298 295 295 298 293 285 286 294 299 291 281 279 279 276 273 271 268 267 269
203 210 217 221 223 225 227 229 233 239 245 255 265 272 280 291 306 314 306 299 298 296 290 283 280 282 285 288 293 301 307 312 316 322 324 321 319 319 317 315 312 310 309 309 309 308 307 305 303 304 312 320 324 326 327 326 323 321 319 317 318 319 315 310 308 308 305 300 295 291 286 283 279 278 286 297 301 294 289 292 294 290 284 280 274 271 271
206 212 219 223 226 227 229 232 237 244 251 257 263 270 279 289 298 302 299 297 297 296 292 285 279 277 281 287 293 300 307 313 316 319 321 319 317 317 315 314 312 311 310 310 311 310 308 305 304 309 317 323 326 328 329 327 325 322 319 318 319 318 314 311 311 309 304 297 294 291 283 272 266 272 285 294 296 292 293 298 301 299 295 291 288 284 282
211 216 221 225 228 230 234 239 244 250 255 260 266 273 278 283 290 295 295 293 293 294 295 293 287 283 283 286 292 298 306 313 316 317 319 319 318 316 316 314 312 311 311 311 311 309 306 304 307 314 321 325 327 329 330 328 326 322 320 318 318 315 313 315 319 317 308 297 290 288 283 273 264 266 276 282 284 286 289 290 290 290 291 293 296 298 295
215 219 224 228 232 236 242 247 251 254 258 265 272 277 277 281 289 297 297 293 293 294 296 294 290 288 287 288 292 297 305 312 315 316 318 319 317 314 314 315 313 310 310 310 309 307 305 306 311 318 323 326 329 330 330 329 327 323 320 317 316 314 312 315 321 321 316 305 295 289 283 275 268 265 266 269 276 285 288 286 283 284 286 290 296 299 298
217 222 227 231 237 243 248 253 256 260 265 271 274 276 278 284 292 297 296 293 293 294 293 292 289 287 288 290 294 300 306 311 313 313 315 318 315 311 311 313 312 309 307 307 307 305 305 308 314 320 325 328 330 331 330 329 327 323 319 316 315 314 312 312 315 319 319 314 305 295 285 278 272 269 267 269 275 282 285 285 284 285 288 291 294 296 297
219 224 229 235 242 249 254 258 262 267 271 273 274 275 280 287 292 295 295 294 295 296 295 293 291 288 287 288 293 298 304 308 310 311 314 316 314 310 310 310 308 306 306 307 307 306 307 310 316 322 327 330 331 331 331 329 327 324 319 317 316 316 314 311 310 312 316 318 315 307 295 284 276 271 269 269 272 276 279 282 284 287 291 294 296 297 298
220 226 233 240 248 255 259 262 265 267 267 268 271 275 281 286 289 291 292 293 295 297 297 296 297 296 293 292 295 299 303 306 307 310 313 315 315 311 308 306 304 303 303 305 306 307 309 314 321 326 329 331 333 332 331 330 328 325 321 318 318 319 317 313 308 306 309 315 320 320 314 302 290 280 273 269 268 271 275 277 279 284 293 299 300 298 296
221 229 237 244 250 256 261 264 265 265 265 266 270 275 280 284 286 287 288 288 292 294 295 296 297 297 296 296 298 301 303 305 307 308 311 314 314 310 307 305 302 300 301 304 307 310 312 318 325 329 330 332 333 333 331 330 328 326 323 322 322 322 320 316 310 306 305 309 315 320 319 313 303 293 284 275 269 267 269 273 279 286 294 298 298 293 291
Height
5634 5635 5636 5637 5637 5637 5637 5638 5638 5638 5638 5638 5638 5639 5639 5639 5638 5638 5637 5637 5635 5634 5633 5632 5632 5631 5630 5629 5628 5628 5628 5629 5630 5630 5630 5630 5631 5633 5632 5632 5634 5636 5638 5640 5643 5646 5646 5645 5646 5648 5650 5651 5653 5654 5656 5657 5659 5661 5663 5664 5665 5667 5668 5671 5674 5676 5678 5679 5680 5682 5683 5683 5684 5686 5688 5690 5691 5693 5695 5696 5697 5698 5699 5700 5702 5703 5702
5632 5633 5634 5635 5635 5635 5636 5636 5636 5636 5636 5637 5637 5637 5638 5637 5637 5636 5636 5635 5634 5633 5631 5630 5628 5627 5626 5626 5625 5625 5625 5625 5626 5626 5625 5626 5627 5628 5628 5630 5631 5632 5634 5637 5640 5642 5643 5643 5644 5646 5647 5649 5650 5651 5653 5655 5657 5658 5660 5662 5663 5664 5666 5668 5671 5674 5675 5676 5676 5678 5679 5680 5682 5684 5686 5687 5688 5690 5692 5693 5695 5696 5697 5698 5700 5700 5701
5630 5631 5632 5633 5634 5634 5634 5634 5634 5635 5635 5635 5635 5636 5636 5636 5635 5635 5634 5633 5631 5630 5629 5628 5626 5624 5623 5623 5623 5622 5622 5622 5623 5622 5621 5622 5623 5624 5625 5627 5629 5630 5632 5635 5636 5638 5640 5642 5643 5644 5645 5647 5648 5649 5650 5652 5654 5656 5657 5659 5660 5661 5663 5665 5668 5670 5672 5673 5673 5674 5676 5678 5680 5681 5682 5684 5686 5687 5688 5690 5692 5693 5695 5696 5698 5699 5699
5629 5630 5631 5632 5632 5632 5632 5633 5633 5633 5634 5634 5634 5634 5634 5634 5634 5633 5633 5632 5630 5629 5627 5625 5623 5622 5621 5621 5621 5620 5620 5619 5620 5619 5619 5619 5620 5621 5622 5624 5626 5628 5630 5632 5633 5634 5637 5639 5640 5642 5643 5644 5645 5647 5648 5650 5652 5654 5655 5656 5657 5659 5660 5662 5665 5667 5669 5670 5670 5671 5673 5675 5677 5678 5679 5682 5684 5685 5686 5687 5689 5691 5693 5694 5695 5697 5697
5627 5628 5629 5630 5630 5631 5631 5631 5632 5632 5632 5633 5633 5633 5633 5633 5632 5632 5631 5630 5628 5627 5625 5623 5621 5620 5619 5619 5619 5618 5618 5617 5617 5616 5616 5617 5617 5617 5619 5621 5623 5624 5626 5628 5629 5631 5634 5636 5638 5639 5640 5641 5644 5645 5646 5648 5650 5651 5652 5654 5655 5656 5657 5659 5661 5664 5665 5666 5666 5667 5669 5672 5674 5674 5676 5679 5681 5682 5684 5685 5686 5689 5691 5692 5694 5695 5696
5626 5627 5628 5629 5629 5629 5630 5630 5630 5631 5631 5631 5632 5632 5631 5631 5631 5630 5629 5628 5626 5625 5623 5621 5619 5618 5617 5617 5616 5616 5615 5615 5614 5614 5614 5614 5614 5614 5615 5617 5618 5620 5622 5624 5625 5628 5631 5632 5634 5636 5637 5639 5642 5642 5644 5646 5647 5649 5651 5652 5653 5653 5654 5656 5658 5660 5662 5662 5663 5664 5665 5668 5671 5672 5674 5676 5678 5680 5682 5683 5684 5686 5688 5690 5692 5694 5695
5625 5626 5626 5627 5628 5628 5629 5629 5629 5630 5630 5630 5630 5630 5630 5630 5629 5628 5627 5626 5624 5623 5621 5619 5617 5616 5615 5614 5614 5614 5614 5613 5612 5612 5612 5611 5611 5611 5611 5612 5614 5616 5618 5620 5621 5624 5626 5628 5630 5633 5634 5637 5639 5640 5641 5643 5644 5646 5648 5649 5650 5650 5651 5652 5654 5656 5657 5658 5660 5661 5662 5665 5668 5670 5672 5673 5675 5677 5679 5681 5682 5683 5685 5687 5689 5690 5692
5623 5624 5625 5626 5626 5627 5627 5628 5628 5629 5629 5629 5629 5629 5629 5629 5628 5627 5626 5625 5624 5622 5620 5618 5616 5614 5613 5612 5612 5612 5612 5611 5610 5610 5610 5609 5608 5608 5608 5609 5610 5612 5614 5616 5617 5619 5622 5624 5627 5629 5631 5634 5636 5638 5639 5639 5641 5643 5644 5646 5646 5646 5647 5648 5649 5651 5652 5654 5657 5658 5660 5663 5665 5667 5669 5670 5671 5674 5676 5677 5679 5680 5682 5684 5685 5687 5688
5622 5623 5624 5625 5625 5626 5626 5627 5627 5628 5628 5628 5628 5628 5628 5628 5627 5626 5625 5624 5623 5621 5619 5618 5616 5614 5612 5611 5611 5611 5610 5609 5608 5608 5607 5606 5606 5606 5606 5606 5607 5608 5610 5611 5613 5615 5617 5620 5622 5625 5628 5631 5633 5635 5636 5636 5637 5639 5641 5642 5642 5642 5644 5645 5645 5647 5649 5652 5655 5655 5657 5660 5662 5664 5666 5667 5669 5671 5673 5674 5676 5677 5679 5681 5682 5684 5685
5620 5622 5623 5624 5624 5625 5626 5626 5626 5627 5627 5627 5627 5627 5627 5626 5626 5625 5624 5623 5621 5620 5618 5617 5615 5614 5612 5610 5610 5609 5608 5607 5606 5606 5605 5605 5604 5604 5604 5604 5605 5606 5607 5608 5610 5612 5614 5616 5619 5622 5625 5628 5629 5630 5632 5633 5635 5637 5638 5639 5639 5640 5642 5643 5643 5645 5647 5649 5651 5652 5655 5657 5658 5659 5662 5665 5667 5668 5670 5672 5673 5675 5676 5678 5680 5681 5682
5619 5621 5622 5623 5623 5624 5625 5625 5625 5626 5626 5626 5626 5626 5626 5626 5625 5624 5623 5622 5620 5619 5618 5616 5615 5613 5612 5610 5609 5608 5607 5606 5605 5604 5603 5603 5602 5602 5602 5602 5603 5604 5605 5606 5608 5610 5612 5615 5617 5620 5623 5625 5625 5626 5629 5631 5633 5635 5636 5637 5637 5639 5640 5641 5642 5644 5645 5646 5647 5649 5652 5653 5654 5655 5658 5661 5663 5665 5666 5668 5670 5672 5673 5676 5678 5679 5680
5618 5620 5621 5622 5623 5623 5624 5624 5624 5625 5625 5625 5625 5625 5625 5625 5624 5623 5622 5621 5620 5618 5617 5616 5614 5613 5611 5609 5608 5607 5605 5604 5603 5603 5602 5601 5601 5601 5601 5600 5600 5601 5603 5605 5607 5609 5611 5613 5616 5618 5621 5622 5622 5623 5626 5628 5630 5632 5633 5634 5635 5636 5638 5639 5641 5642 5643 5644 5645 5646 5648 5650 5651 5653 5655 5657 5659 5661 5662 5663 5666 5667 5669 5672 5675 5676 5677
5617 5619 5620 5621 5622 5622 5623 5623 5624 5624 5624 5624 5624 5624 5624 5624 5623 5622 5621 5621 5619 5618 5617 5616 5614 5613 5611 5609 5608 5606 5605 5603 5603 5602 5601 5600 5600 5600 5599 5598 5599 5600 5601 5604 5606 5608 5609 5611 5613 5616 5618 5618 5619 5622 5625 5626 5627 5629 5631 5632 5633 5634 5636 5637 5638 5640 5642 5643 5643 5644 5646 5648 5649 5650 5651 5654 5656 5657 5658 5660 5662 5664 5666 5669 5671 5672 5673
5617 5618 5619 5620 5621 5622 5622 5623 5623 5623 5623 5623 5624 5623 5623 5623 5622 5621 5621 5620 5619 5618 5617 5615 5614 5613 5611 5609 5608 5606 5605 5603 5602 5601 5600 5600 5599 5598 5598 5598 5598 5599 5601 5603 5605 5606 5608 5609 5611 5614 5615 5617 5618 5621 5623 5624 5626 5627 5629 5630 5631 5633 5634 5636 5636 5638 5640 5641 5642 5643 5644 5645 5646 5647 5649 5651 5652 5654 5655 5657 5659 5661 5663 5666 5667 5669 5670
5616 5617 5618 5619 5620 5621 5621 5622 5622 5622 5623 5623 5623 5623 5623 5622 5621 5621 5620 5619 5619 5618 5617 5615 5614 5613 5611 5610 5608 5607 5605 5604 5602 5601 5600 5599 5598 5597 5597 5598 5599 5600 5601 5602 5604 5605 5607 5608 5610 5612 5614 5615 5617 5619 5621 5622 5624 5626 5627 5628 5629 5631 5633 5633 5634 5636 5638 5639 5640 5641 5642 5643 5644 5645 5647 5648 5649 5651 5652 5654 5656 5658 5660 5661 5663 5665 5666
5615 5617 5618 5619 5619 5620 5621 5621 5622 5622 5622 5622 5622 5622 5622 5622 5621 5620 5620 5619 5618 5617 5616 5615 5614 5612 5611 5610 5608 5607 5606 5605 5603 5602 5600 5599 5598 5598 5597 5597 5598 5600 5601 5602 5603 5605 5606 5607 5609 5610 5612 5614 5615 5617 5619 5621 5622 5624 5625 5626 5627 5629 5631 5632 5633 5634 5635 5636 5638 5639 5640 5641 5642 5643 5644 5646 5647 5648 5649 5651 5653 5656 5657 5658 5659 5661 5662
5615 5616 5617 5618 5618 5619 5620 5620 5621 5621 5621 5621 5622 5621 5621 5621 5621 5620 5619 5619 5618 5617 5615 5615 5614 5612 5611 5610 5608 5607 5606 5605 5604 5603 5601 5600 5599 5598 5598 5597 5597 5599 5600 5602 5603 5604 5605 5607 5608 5610 5611 5613 5614 5616 5618 5619 5621 5622 5623 5624 5625 5627 5629 5630 5631 5631 5633 5634 5635 5636 5638 5639 5640 5641 5642 5643 5644 5646 5647 5648 5650 5653 5654 5655 5656 5658 5659
5614 5615 5616 5617 5618 5618 5619 5619 5620 5620 5621 5621 5621 5621 5621 5620 5620 5619 5619 5618 5617 5616 5615 5614 5613 5612 5611 5610 5609 5607 5606 5605 5604 5603 5602 5601 5600 5599 5598 5597 5597 5599 5600 5601 5603 5604 5605 5606 5607 5609 5610 5611 5613 5615 5616 5618 5619 5620 5622 5623 5624 5625 5626 5628 5628 5629 5630 5631 5633 5634 5635 5637 5638 5639 5640 5641 5642 5644 5645 5646 5647 5649 5650 5651 5652 5654 5655
5613 5614 5615 5616 5617 5618 5618 5619 5619 5619 5620 5620 5620 5620 5620 5620 5619 5619 5618 5617 5616 5616 5615 5614 5613 5612 5611 5610 5609 5608 5607 5606 5605 5604 5603 5602 5601 5600 5599 5598 5598 5599 5601 5601 5602 5604 5605 5606 5607 5608 5610 5611 5612 5614 5615 5617 5618 5619 5621 5622 5623 5624 5625 5625 5626 5627 5628 5629 5631 5632 5633 5634 5635 5636 5637 5639 5640 5641 5642 5644 5645 5646 5647 5648 5649 5651 5652
5612 5613 5615 5615 5616 5617 5618 5618 5619 5619 5619 5619 5620 5620 5619 5619 5619 5618 5617 5617 5616 5615 5614 5613 5613 5612 5611 5610 5609 5608 5607 5606 5605 5604 5603 5603 5602 5601 5600 5600 5600 5600 5601 5602 5603 5604 5605 5606 5607 5607 5609 5610 5612 5613 5614 5616 5617 5618 5619 5620 5621 5622 5623 5624 5624 5625 5626 5627 5629 5630 5631 5631 5632 5634 5635 5636 5638 5638 5639 5641 5642 5643 5644 5645 5647 5648 5649
5612 5613 5614 5615 5616 5616 5617 5618 5618 5618 5619 5619 5619 5619 5619 5618 5618 5617 5617 5616 5615 5615 5614 5613 5612 5611 5610 5610 5609 5608 5607 5606 5605 5604 5604 5603 5603 5602 5602 5601 5601 5601 5601 5602 5603 5604 5604 5605 5606 5606 5607 5609 5610 5611 5613 5615 5616 5617 5618 5619 5619 5620 5621 5622 5622 5623 5624 5625 5626 5627 5628 5628 5629 5631 5632 5633 5634 5635 5636 5638 5639 5640 5640 5642 5644 5645 5645
5611 5612 5613 5614 5615 5616 5616 5617 5617 5618 5618 5618 5618 5618 5618 5618 5617 5617 5616 5616 5615 5614 5614 5613 5612 5611 5610 5609 5608 5608 5607 5606 5605 5605 5604 5604 5603 5603 5603 5602 5602 5602 5602 5602 5603 5604 5604 5604 5605 5606 5606 5607 5609 5610 5611 5612 5614 5615 5616 5617 5617 5618 5618 5619 5619 5620 5621 5622 5623 5624 5625 5625 5626 5627 5628 5629 5630 5631 5632 5634 5635 5636 5637 5638 5639 5640 5641
5610 5611 5612 5613 5614 5615 5616 5616 5617 5617 5617 5618 5618 5617 5617 5617 5617 5617 5616 5615 5615 5614 5613 5613 5612 5611 5610 5609 5608 5607 5607 5606 5605 5605 5604 5604 5603 5603 5603 5603 5603 5603 5603 5603 5604 5604 5604 5604 5605 5605 5605 5606 5607 5609 5609 5610 5611 5613 5614 5615 5615 5615 5616 5616 5617 5618 5618 5619 5620 5620 5621 5622 5623 5624 5624 5625 5626 5627 5628 5629 5630 5632 5633 5634 5634 5635 5636
5610 5611 5612 5613 5614 5614 5615 5616 5616 5617 5617 5617 5617 5617 5617 5616 5616 5616 5615 5615 5614 5614 5613 5613 5612 5611 5610 5609 5608 5607 5606 5606 5605 5605 5604 5604 5603 5603 5603 5603 5603 5603 5604 5604 5604 5604 5604 5604 5604 5604 5604 5605 5606 5607 5607 5608 5609 5611 5612 5612 5613 5613 5613 5614 5614 5615 5616 5616 5617 5617 5617 5618 5618 5619 5620 5621 5622 5623 5624 5624 5625 5627 5628 5628 5629 5630 5630
5609 5610 5611 5612 5613 5614 5615 5615 5616 5616 5616 5616 5616 5616 5616 5616 5616 5615 5615 5614 5614 5613 5613 5612 5611 5610 5609 5609 5608 5607 5606 5606 5605 5604 5604 5604 5603 5603 5603 5603 5603 5603 5604 5604 5604 5604 5603 5603 5604 5604 5604 5604 5605 5605 5606 5607 5608 5609 5609 5609 5610 5611 5611 5612 5612 5612 5613 5613 5614 5614 5614 5614 5614 5615 5616 5617 5618 5618 5619 5619 5620 5621 5622 5623 5624 5624 5625
5608 5610 5611 5611 5612 5613 5614 5615 5615 5615 5616 5616 5616 5616 5616 5615 5615 5615 5614 5613 5613 5613 5612 5611 5611 5610 5609 5609 5608 5607 5606 5606 5605 5604 5604 5603 5603 5603 5603 5603 5603 5603 5603 5603 5603 5603 5603 5603 5604 5604 5603 5603 5604 5605 5605 5606 5606 5607 5607 5607 5607 5608 5609 5609 5609 5610 5610 5611 5611 5611 5610 5610 5611 5611 5612 5612 5613 5613 5613 5614 5615 5616 5616 5617 5618 5619 5619
5608 5609 5610 5611 5612 5613 5613 5614 5615 5615 5615 5615 5615 5615 5615 5615 5615 5614 5614 5613 5612 5612 5611 5611 5610 5610 5609 5608 5608 5607 5606 5606 5605 5604 5604 5603 5603 5603 5603 5603 5603 5603 5602 5602 5602 5603 5603 5603 5603 5603 5603 5603 5604 5604 5605 5605 5605 5605 5605 5605 5604 5605 5605 5605 5606 5607 5608 5608 5608 5607 5607 5607 5607 5608 5608 5608 5608 5608 5608 5609 5609 5610 5611 5611 5612 5613 5614
5607 5608 5609 5610 5611 5612 5613 5614 5614 5614 5615 5615 5615 5615 5615 5614 5614 5614 5614 5613 5612 5611 5611 5611 5610 5609 5609 5608 5607 5607 5606 5605 5605 5604 5604 5603 5603 5602 5602 5602 5602 5602 5602 5602 5602 5602 5602 5602 5602 5602 5602 5603 5603 5604 5604 5604 5604 5604 5604 5603 5603 5602 5602 5603 5603 5604 5604 5604 5605 5605 5605 5605 5605 5604 5604 5604 5603 5604 5604 5604 5604 5605 5605 5606 5607 5608 5608
5606 5607 5609 5610 5610 5611 5612 5613 5613 5614 5614 5614 5614 5614 5614 5614 5613 5613 5613 5613 5612 5611 5610 5610 5609 5609 5608 5608 5607 5606 5606 5605 5605 5604 5603 5603 5602 5602 5602 5602 5602 5601 5601 5601 5601 5601 5601 5601 5601 5601 5602 5602 5602 5603 5603 5603 5603 5603 5602 5602 5601 5600 5600 5601 5601 5601 5601 5601 5601 5602 5602 5602 5603 5602 5602 5601 5600 5600 5600 5600 5600 5600 5600 5600 5601 5603 5603
5605 5607 5608 5609 5610 5611 5611 5612 5613 5613 5613 5614 5614 5613 5613 5613 5613 5612 5612 5612 5612 5611 5610 5609 5609 5608 5608 5607 5607 5606 5605 5605 5605 5604 5603 5602 5602 5602 5601 5601 5601 5601 5600 5600 5600 5600 5600 5600 5600 5600 5601 5601 5601 5602 5602 5602 5602 5601 5601 5600 5599 5599 5599 5598 5598 5598 5598 5598 5598 5598 5598 5598 5599 5599 5599 5599 5598 5598 5597 5597 5597 5596 5596 5595 5596 5597 5598
5604 5606 5607 5608 5609 5610 5610 5611 5612 5612 5613 5613 5613 5613 5612 5612 5612 5612 5612 5611 5611 5611 5610 5609 5609 5608 5608 5607 5606 5606 5605 5605 5604 5604 5603 5602 5602 5601 5601 5600 5600 5600 5600 5600 5599 5599 5599 5599 5599 5599 5599 5600 5600 5600 5600 5600 5600 5600 5599 5599 5598 5597 5597 5597 5596 5596 5595 5595 5594 5594 5594 5594 5594 5594 5594 5595 5595 5595 5595 5594 5594 5594 5593 5593 5593 5593 5593
5604 5605 5606 5607 5608 5609 5610 5610 5611 5612 5612 5612 5612 5612 5612 5612 5611 5611 5611 5611 5610 5610 5609 5609 5608 5608 5607 5607 5606 5605 5605 5604 5604 5603 5603 5602 5601 5601 5600 5600 5600 5600 5599 5599 5599 5599 5598 5598 5598 5598 5598 5599 5599 5599 5599 5599 5598 5598 5597 5597 5596 5595 5595 5595 5594 5594 5593 5592 5592 5591 5590 5590 5590 5589 5589 5589 5589 5589 5590 5590 5590 5590 5590 5590 5589 5589 5589
5603 5604 5605 5606 5607 5608 5609 5609 5610 5611 5611 5611 5611 5611 5611 5611 5611 5611 5610 5610 5610 5610 5609 5608 5608 5607 5607 5606 5606 5605 5605 5604 5604 5603 5602 5602 5601 5600 5600 5600 5599 5599 5599 5598 5598 5598 5598 5597 5597 5597 5597 5597 5597 5598 5597 5597 5596 5596 5595 5595 5594 5594 5593 5592 5592 5591 5591 5590 5589 5588 5588 5587 5586 5586 5585 5585 5584 5584 5584 5584 5584 5584 5584 5584 5584 5584 5584
5602 5603 5604 5605 5606 5607 5608 5608 5609 5610 5610 5610 5610 5610 5610 5610 5610 5610 5610 5610 5609 5609 5609 5608 5607 5607 5606 5606 5605 5605 5604 5604 5603 5603 5602 5601 5601 5600 5600 5599 5599 5598 5598 5598 5597 5597 5596 5596 5596 5596 5596 5596 5596 5596 5595 5595 5594 5594 5594 5593 5592 5592 5591 5590 5589 5588 5587 5587 5586 5585 5584 5583 5583 5582 5581 5581 5580 5580 5579 5578 5578 5578 5578 5578 5578 5579 5579
5601 5602 5603 5604 5605 5606 5607 5607 5608 5609 5609 5609 5610 5610 5610 5609 5609 5609 5609 5609 5609 5608 5608 5608 5607 5606 5606 5605 5605 5604 5604 5603 5603 5602 5602 5601 5600 5600 5599 5599 5598 5598 5597 5597 5597 5596 5596 5595 5595 5595 5595 5595 5595 5594 5593 5593 5592 5592 5592 5591 5591 5590 5589 5588 5587 5586 5585 5584 5582 5581 5580 5579 5579 5578 5577 5576 5576 5576 5575 5573 5572 5572 5573 5573 5573 5573 5573
5600 5601 5602 5603 5604 5605 5605 5606 5607 5607 5608 5608 5609 5609 5609 5609 5608 5608 5608 5608 5608 5608 5607 5607 5606 5606 5605 5605 5604 5604 5603 5603 5602 5602 5601 5601 5600 5599 5599 5598 5598 5597 5597 5596 5596 5596 5595 5594 5594 5594 5594 5594 5593 5592 5592 5591 5591 5591 5590 5589 5588 5587 5586 5586 5585 5584 5583 5581 5580 5578 5576 5575 5574 5573 5572 5572 5572 5571 5570 5568 5567 5567 5568 5568 5568 5568 5568
5598 5600 5601 5602 5603 5603 5604 5605 5606 5606 5607 5607 5607 5608 5608 5608 5607 5607 5607 5607 5607 5607 5606 5606 5605 5605 5604 5604 5604 5603 5603 5602 5602 5601 5601 5600 5600 5599 5598 5598 5597 5596 5596 5595 5595 5595 5594 5594 5594 5594 5593 5593 5592 5591 5590 5590 5589 5588 5587 5586 5585 5584 5583 5582 5581 5579 5578 5577 5576 5574 5572 5570 5569 5568 5567 5567 5567 5567 5565 5564 5563 5563 5563 5563 5563 5563 5563
5597 5598 5599 5600 5601 5602 5603 5603 5604 5605 5605 5606 5606 5606 5606 5606 5606 5606 5606 5606 5606 5605 5605 5605 5604 5604 5603 5603 5602 5602 5602 5601 5601 5601 5600 5600 5599 5598 5598 5597 5596 5596 5595 5595 5594 5594 5593 5593 5593 5593 5592 5591 5591 5590 5589 5588 5587 5586 5584 5583 5582 5580 5579 5578 5576 5575 5573 5571 5570 5568 5567 5565 5564 5563 5562 5562 5562 5561 5560 5559 5559 5559 5558 5558 5558 5558 5558
5595 5597 5598 5599 5600 5601 5602 5602 5603 5603 5604 5604 5605 5605 5605 5605 5605 5605 5605 5605 5605 5604 5604 5604 5603 5603 5603 5602 5602 5601 5601 5600 5600 5600 5599 5599 5598 5598 5597 5597 5596 5595 5594 5594 5593 5593 5592 5592 5592 5591 5591 5590 5590 5589 5588 5586 5585 5583 5582 5580 5578 5576 5574 5572 5570 5569 5567 5565 5564 5563 5561 5560 5559 5558 5557 5556 5556 5556 5555 5555 5555 5555 5554 5554 5554 5554 5553
5594 5596 5597 5598 5599 5600 5600 5601 5602 5602 5603 5603 5603 5604 5604 5604 5604 5604 5604 5603 5603 5603 5603 5603 5602 5602 5601 5601 5601 5600 5600 5600 5599 5599 5599 5598 5597 5596 5596 5596 5595 5594 5593 5593 5592 5592 5591 5591 5591 5590 5589 5589 5588 5587 5585 5583 5582 5580 5579 5577 5575 5572 5569 5566 5564 5562 5560 5559 5557 5556 5555 5554 5553 5552 5551 5551 5551 5551 5551 5550 5550 5550 5550 5550 5550 5550 5549
5593 5594 5595 5596 5597 5598 5599 5600 5600 5601 5601 5602 5602 5602 5602 5603 5603 5602 5602 5602 5602 5602 5602 5601 5601 5601 5600 5600 5600 5599 5599 5599 5598 5598 5598 5597 5596 5595 5595 5594 5594 5593 5592 5592 5591 5590 5590 5589 5589 5588 5588 5587 5586 5584 5582 5580 5579 5577 5575 5573 5570 5567 5564 5561 5559 5556 5554 5553 5551 5550 5549 5549 5548 5547 5547 5546 5546 5546 5546 5546 5546 5546 5546 5547 5547 5546 5546
5591 5593 5594 5595 5596 5596 5597 5598 5599 5599 5600 5600 5601 5601 5601 5601 5601 5601 5601 5601 5601 5600 5600 5600 5600 5599 5599 5599 5598 5598 5598 5597 5597 5597 5596 5596 5595 5594 5593 5593 5592 5591 5591 5590 5590 5589 5588 5588 5587 5587 5586 5585 5583 5581 5579 5577 5575 5573 5571 5569 5565 5561 5558 5556 5554 5551 5549 5548 5547 5546 5545 5544 5544 5544 5544 5543 5543 5543 5542 5542 5542 5542 5542 5543 5543 5543 5542
5590 5591 5592 5593 5594 5595 5596 5596 5597 5598 5598 5599 5599 5600 5600 5600 5600 5600 5600 5599 5599 5599 5599 5599 5599 5598 5598 5597 5597 5597 5596 5596 5596 5595 5595 5594 5593 5593 5592 5591 5590 5590 5589 5589 5588 5587 5587 5586 5586 5585 5584 5582 5581 5579 5577 5574 5572 5569 5566 5564 5560 5556 5553 5551 5549 5548 5546 5545 5543 5543 5542 5542 5542 5542 5542 5542 5541 5540 5540 5539 5539 5539 5539 5539 5540 5540 5539
5588 5590 5591 5592 5592 5593 5594 5595 5596 5596 5597 5598 5598 5598 5598 5598 5599 5599 5598 5598 5598 5598 5597 5597 5597 5597 5597 5596 5595 5595 5595 5595 5594 5594 5593 5593 5592 5591 5590 5589 5589 5588 5587 5587 5586 5586 5585 5584 5583 5582 5581 5580 5578 5576 5573 5571 5568 5565 5561 5558 5555 5553 5550 5547 5546 5545 5544 5542 5541 5540 5540 5540 5540 5540 5540 5540 5539 5538 5537 5537 5537 5536 5536 5536 5536 5537 5536
5587 5588 5589 5590 5591 5592 5592 5593 5594 5595 5596 5596 5596 5596 5596 5596 5597 5597 5597 5596 5596 5596 5596 5595 5595 5595 5595 5595 5594 5594 5593 5593 5592 5592 5592 5591 5590 5589 5588 5587 5587 5586 5585 5585 5584 5583 5583 5582 5580 5579 5578 5577 5575 5573 5571 5567 5564 5561 5557 5554 5551 5549 5547 5545 5544 5542 5541 5540 5539 5538 5538 5538 5538 5538 5538 5537 5537 5536 5535 5535 5535 5534 5534 5533 5533 5533 5533
5585 5586 5587 5588 5589 5590 5591 5592 5593 5593 5594 5594 5594 5595 5595 5595 5595 5595 5595 5594 5594 5594 5594 5594 5593 5593 5593 5593 5592 5592 5591 5591 5591 5590 5590 5589 5588 5587 5586 5585 5584 5584 5583 5582 5582 5581 5580 5579 5577 5576 5575 5573 5572 5569 5567 5564 5561 5557 5553 5550 5548 5546 5544 5543 5541 5540 5539 5538 5537 5536 5536 5535 5535 5535 5535 5534 5534 5534 5534 5533 5533 5532 5532 5531 5531 5531 5531
5583 5585 5586 5587 5588 5588 5589 5590 5591 5592 5592 5592 5593 5593 5593 5593 5593 5594 5593 5593 5592 5592 5592 5591 5591 5591 5591 5591 5590 5590 5589 5589 5588 5588 5587 5587 5586 5585 5584 5583 5582 5581 5580 5580 5579 5578 5577 5576 5574 5573 5571 5570 5568 5565 5563 5560 5557 5553 5550 5547 5545 5543 5542 5540 5539 5538 5537 5536 5535 5534 5533 5533 5533 5532 5532 5532 5531 5531 5531 5531 5531 5530 5530 5530 5529 5529 5529
5582 5583 5584 5585 5586 5587 5588 5589 5589 5590 5590 5591 5591 5591 5591 5591 5591 5591 5591 5591 5590 5590 5590 5589 5589 5589 5589 5589 5589 5588 5587 5587 5586 5586 5585 5584 5583 5582 5581 5581 5580 5579 5578 5578 5577 5576 5574 5573 5572 5570 5568 5566 5564 5562 5559 5556 5553 5549 5546 5544 5542 5541 5540 5538 5537 5536 5535 5534 5533 5532 5531 5531 5530 5530 5530 5529 5529 5529 5529 5529 5528 5528 5528 5528 5527 5527 5527
5580 5581 5582 5583 5584 5585 5586 5587 5587 5588 5588 5589 5589 5589 5589 5589 5589 5589 5589 5589 5589 5588 5588 5588 5588 5587 5587 5587 5587 5586 5585 5585 5584 5583 5583 5582 5581 5580 5579 5578 5578 5577 5576 5575 5574 5573 5572 5570 5569 5568 5566 5564 5561 5558 5556 5552 5549 5546 5543 5541 5539 5538 5537 5536 5535 5534 5533 5532 5531 5530 5529 5528 5528 5528 5527 5527 5527 5527 5526 5526 5526 5526 5525 5525 5525 5525 5525
5578 5579 5580 5581 5582 5583 5584 5585 5585 5586 5586 5587 5587 5587 5587 5587 5587 5587 5586 5586 5586 5586 5586 5585 5585 5585 5585 5585 5584 5584 5584 5583 5582 5581 5580 5580 5579 5577 5576 5576 5575 5574 5573 5572 5571 5570 5569 5568 5567 5565 5563 5561 5558 5556 5552 5549 5546 5543 5540 5538 5537 5536 5535 5534 5533 5532 5531 5529 5528 5528 5527 5526 5526 5525 5525 5525 5524 5524 5524 5523 5523 5523 5523 5523 5522 5522 5522
5576 5578 5579 5580 5581 5581 5582 5583 5584 5584 5584 5585 5585 5585 5585 5584 5584 5584 5584 5584 5584 5584 5583 5583 5583 5583 5583 5582 5582 5582 5581 5581 5580 5579 5578 5577 5576 5575 5574 5573 5572 5572 5571 5570 5569 5568 5567 5566 5564 5562 5560 5558 5555 5552 5549 5546 5543 5540 5537 5536 5534 5533 5533 5532 5531 5530 5529 5528 5526 5526 5525 5524 5524 5523 5522 5522 5521 5521 5521 5521 5521 5521 5521 5521 5520 5520 5520
5575 5576 5577 5578 5579 5579 5580 5581 5582 5582 5582 5583 5583 5583 5583 5582 5582 5582 5582 5582 5582 5582 5582 5581 5581 5581 5581 5580 5580 5579 5578 5578 5577 5576 5575 5575 5574 5573 5572 5571 5570 5569 5568 5567 5566 5565 5564 5563 5561 5559 5557 5555 5552 5549 5546 5543 5540 5537 5535 5534 5532 5531 5530 5529 5528 5527 5526 5525 5524 5523 5523 5522 5521 5520 5519 5519 5519 5519 5519 5518 5518 5519 5519 5518 5518 5518 5517